Flag Weather past 2 weeks in Cape Town, South Africa

Now
68 °F

Clear.


Feels Like: 68 °F
Forecast: 64 / 71 °F
Wind: 12 mph from South

Location: Cape Town International Airport

Current Time: Nov 26, 2014 at 1:36:40 AM

Latest Report: Nov 26, 2014 at 1:00 AM


Visibility: 10 mi

Pressure: 29.71 "Hg

Humidity: 69%

Dew point: 57 °F

Location of Cape TownLocation

Historic Weather in Cape Town — Graph

°F

Cape Town temperature yesterday

Maximum temperature yesterday: 86 °F (at 1:00 PM)
Minimum temperature yesterday: 61 °F (at 6:00 AM)
Average temperature yesterday: 74 °F

Past Weeks' High & Low Weather Summary

 TemperatureHumidityPressure
High86 °F (Nov 25, 1:00 PM)94% (Nov 12, 11:00 PM)30.42 "Hg (Nov 12, 11:00 PM)
Low46 °F (Nov 15, 6:00 AM)36% (Nov 18, 12:00 PM)29.65 "Hg (Nov 12, 5:00 PM)
Average65 °F64%30.03 "Hg
* Reported Midnight between Nov 10 and Nov 11 — Midnight between Nov 25 and Nov 26, Cape Town, Weather by CustomWeather, © 2014

Note: Actual official high and low records may vary slightly from our data, if they occured in-between our weather recording intervals... More about our weather records

Advertising

Cape Town weather history for previous 24 hours

 ConditionsComfort  
Time TempWeatherWind HumidityBarometerVisibility
12:00 AM
Nov 26
68 °FClear.9 mph69%29.74 "Hg10 mi
11:00 PM
Nov 25
70 °FClear.6 mph64%29.77 "Hg10 mi
10:00 PM70 °FClear.9 mph64%29.77 "Hg10 mi
9:00 PM72 °FPassing clouds.7 mph61%29.77 "HgN/A
8:00 PM75 °FClear.15 mph57%29.77 "Hg10 mi
7:00 PM79 °FClear.15 mph51%29.77 "Hg10 mi
6:00 PM82 °FPassing clouds.14 mph48%29.80 "HgN/A
5:00 PM84 °FPassing clouds.20 mph43%29.80 "HgN/A
4:00 PM86 °FSunny.14 mph43%29.83 "Hg10 mi
3:00 PM86 °FSunny.15 mph43%29.83 "Hg10 mi
2:00 PM86 °FSunny.16 mph38%29.89 "Hg10 mi
1:00 PM86 °FPassing clouds.14 mph38%29.89 "HgN/A
12:00 PM82 °FPassing clouds.15 mph42%29.92 "HgN/A
11:00 AM82 °FPassing clouds.15 mph42%29.92 "HgN/A
10:00 AM81 °FPassing clouds.12 mph39%29.92 "HgN/A
9:00 AM75 °FPassing clouds.7 mph50%29.95 "HgN/A
8:00 AM70 °FPassing clouds.5 mph53%29.95 "HgN/A
7:00 AM66 °FPassing clouds.5 mph68%29.95 "HgN/A
6:00 AM61 °FSunny.5 mph72%29.95 "Hg10 mi
5:00 AM63 °FSunny.10 mph68%29.95 "Hg10 mi
4:00 AM63 °FClear.7 mph64%29.95 "Hg10 mi
3:00 AM63 °FClear.6 mph64%29.95 "Hg10 mi
2:00 AM64 °FPassing clouds.3 mph60%29.95 "HgN/A
1:00 AM64 °FPassing clouds.3 mph64%29.98 "HgN/A
Weather by CustomWeather, © 2014

See weather overviewHow to use our weather pages